World > North America > United States > Ohio > Monroe Center

Hourly Monroe Center, OH Regional Weather

Feedback E-mail the Weather

Quick WX

Monroe Center, OH Weather Maps

°F °C°F °C
Monroe Center Weather Map
UTC Time: 8/7/2022, 19:42
Your Time:

Monroe Center, OH Regional Weather

Expires:202208072000;;631970
ASUS41 KCLE 071912
RWRCLE
OHIO REGIONAL WEATHER ROUNDUP
NATIONAL WEATHER SERVICE WILMINGTON, OH
300 PM EDT SUN AUG 07 2022

NOTE: "FAIR" INDICATES FEW OR NO CLOUDS BELOW 12,000 FEET WITH NO
SIGNIFICANT WEATHER AND/OR OBSTRUCTIONS TO VISIBILITY.


OHZ009>014-019>023-028>033-038-089-072000-
   NORTHEAST OHIO
  
CITY           SKY/WX    TMP DP  RH WIND       PRES   REMARKS
CLE-HOPKINS    PTSUNNY   88  72  58 S12       30.07F HX  94           
CLE-LAKEFRONT  PTSUNNY   85  75  72 CALM      30.07F HX  93           
CUY CO. ARPT   MOSUNNY   73  66  78 SE7       30.09F                  
LORAIN-ELYRIA    N/A     87  72  60 W12       30.09S HX  93           
ASHTABULA      HVY RAIN  76  74  93 CALM      30.10F FOG              
AKRON-CANTON   PTSUNNY   91  69  48 W9        30.12F HX  96           
WOOSTER        RAIN      75  70  84 S9        30.15R                  
MANSFIELD      FAIR      83  67  58 SW13      30.13F                  
YOUNGSTOWN     PTSUNNY   89  69  51 SW7       30.12F HX  93           
$$
 

SKY/WX - Weather  TMP - Temperature  DP - Dew Point  RH - Humidity
WIND - Wind Direction/Speed PRES - Barometric Pressure VSB - Visibility
WCI - Wind Chill Index E13G22 Wind - East Wind 13 mph/Gusts of 22 mph

Trending Headlines

Monroe Center Radar Loop



Monroe Center Quick Facts


National Two Day Weather Forecast


E-mail the Monroe Center Weather Forecast

Voice your opinion or tell us about page issues...